Regional Weather Roundup
Issued by NWS Upton, NY

Current Version | Previous Version | Text Only | Print | Product List | Glossary On
Versions: 1 2 3 4 5 6 7 8 9 10 11 12 13 14 15 16 17 18 19 20 21 22 23 24 25 26 27 28 29 30 31 32 33 34 35 36 37 38 39 40 41 42 43 44 45 46 47 48 49 50
000 ASUS41 KOKX 180508 RWROKX REGIONAL WEATHER ROUNDUP NATIONAL WEATHER SERVICE NEW YORK NY 1200 AM EST SAT NOV 18 2017 NOTE: "FAIR" INDICATES FEW OR NO CLOUDS BELOW 12,000 FEET WITH NO SIGNIFICANT WEATHER AND/OR OBSTRUCTIONS TO VISIBILITY. NYZ071-072-176-178-NJZ106-104-180600- NEW YORK CITY METRO AREA CITY SKY/WX TMP DP RH WIND PRES REMARKS Central Park CLEAR 38 16 40 VRB5 30.09S WCI 34 Bronx Bot Gard N/A 37 16 41 NW2 30.08R LaGuardia APRT PTCLDY 41 18 39 W12 30.07S Kennedy INTL PTCLDY 39 17 41 NW9 30.08F WCI 33 Breezy Point N/A 39 N/A N/A NW9 N/A WCI 33 Newark/Liberty PTCLDY 37 18 46 W7 30.08S WCI 32 Teterboro CLEAR 33 18 53 CALM 30.07S $$ NYZ177-179-078>081-180600- LONG ISLAND NEW YORK CITY SKY/WX TMP DP RH WIND PRES REMARKS Jones Beach N/A 39 N/A N/A NW6 N/A WCI 35 Matinecock PT N/A 41 N/A N/A W12 N/A Farmingdale CLEAR 34 20 56 CALM 30.07S MacArthur/ISP PTCLDY 31 21 66 W7 30.05F WCI 24 Shirley CLEAR 30 23 75 W3 30.06F Mt Sinai Harb N/A N/A N/A N/A NW5 N/A Westhampton CLEAR 25 15 66 CALM 30.07S East Hampton FAIR 26 18 71 CALM 30.05S Southold NOT AVBL Montauk NOT AVBL $$ NYZ052-065-067-180600- HUDSON VALLEY CITY SKY/WX TMP DP RH WIND PRES REMARKS White Plains CLEAR 29 20 69 NW8 30.03F WCI 21 Larchmont Harb N/A 37 N/A N/A SW7 N/A WCI 32 Croton On Huds N/A 32 N/A N/A E1 N/A Newburgh CLEAR 27 21 80 CALM 30.06F Montgomery CLOUDY 25 19 78 CALM 30.05S Poughkeepsie CLEAR 24 18 77 CALM 30.06S Albany PTCLDY 26 17 68 CALM 30.06F $$ NJZ001-105-106-008-010-013-015-019>022-104-180600- NEW JERSEY CITY SKY/WX TMP DP RH WIND PRES REMARKS Newark/Liberty PTCLDY 37 18 46 W7 30.08S WCI 32 Teterboro CLEAR 33 18 53 CALM 30.07S Caldwell CLOUDY 31 19 61 CALM 30.08S Somerville CLOUDY 26 22 84 NW3 30.07F Linden FAIR 35 19 51 CALM 30.08F Perth Amboy N/A 36 N/A N/A W5 N/A WCI 32 Sussex CLOUDY 27 19 72 CALM 30.05F Andover NOT AVBL Trenton CLOUDY 31 24 75 NW3 30.07F Millville PTCLDY 31 28 89 SW5 30.08F WCI 26 Atlantic City PTCLDY 36 27 69 W5 30.08F WCI 32 Wrightstown CLOUDY 29 24 80 CALM 30.05F Toms River PTCLDY 28 25 88 S3 30.08F Belmar PTCLDY 32 21 64 W6 30.08F WCI 26 $$ PAZ047>061-062-071-180600- EASTERN PENNSYLVANIA CITY SKY/WX TMP DP RH WIND PRES REMARKS Philadelphia CLOUDY 37 29 72 SW5 30.09F WCI 33 Allentown CLOUDY 32 23 69 CALM 30.06F Scranton CLOUDY 31 19 61 E5 30.01F WCI 26 $$ CTZ002-004>006-009-010-012-RIZ004-006-007-MAZ004-011-015-180600- SOUTHERN NEW ENGLAND IN CT CITY SKY/WX TMP DP RH WIND PRES REMARKS Bradley INTL CLEAR 29 18 63 W8 30.04R WCI 21 Hartford CLEAR 33 17 51 NW5 30.05R WCI 29 Danbury PTCLDY 29 15 56 W5 30.05S WCI 24 Wtrbury/Oxford CLEAR 28 14 55 CALM 30.02F Norwalk Harbor N/A 36 N/A N/A W8 N/A WCI 29 Bridgeport CLEAR 36 18 48 CALM 30.06S Meriden CLEAR 22 19 89 CALM 30.05S New Haven CLEAR 35 15 44 NW5 30.06R WCI 31 Chester FAIR 32 12 43 CALM 30.03R Groton CLEAR 34 18 52 W6 30.05R WCI 29 Wilimantic CLEAR 29 21 72 CALM 30.03R IN RI CITY SKY/WX TMP DP RH WIND PRES REMARKS Providence CLEAR 29 21 72 CALM 30.01 Block Island CLEAR 38 21 50 NW9 30.04R WCI 31 Westerly CLEAR 33 18 53 CALM 30.04R IN MA CITY SKY/WX TMP DP RH WIND PRES REMARKS Boston NOT AVBL Worcester CLEAR 29 13 51 NW8 29.95R WCI 21 Westfield CLEAR 30 17 58 NW8 30.02S WCI 22 Provincetown CLEAR 38 20 48 N20 29.96F WCI 28 Nantucket CLEAR 38 20 48 NW18 29.98R WCI 28 $$ ANZ330-335-338-340-345-350-353-355-180600- COASTAL MARINE OBSERVATIONS STATION/POSITION TIME SKY/WX TEMP WIND PRES VSBY WAVE AIR SEA DIR/SP/G HT/PER (UTC) (F) (DEG/KT/KT) (MB) (MI) (FT/S) NY HARB ENTRANCE 0350 45 57 300/ 16/ 17 1017.7 2/11 20 S FIRE ISLAND 0350 46 58 310/ 14/ 17 1018.0 2/ 5 GREAT SOUTH BAY 0430 40 46 290/ 10/ 12 N/A HUDSON CANYON 0350 51 60 310/ 12/ 16 1017.7 5/ 6 KINGS POINT NOT AVBL EXECUTION ROCKS 0445 40 280/ 10/ 12 N/A WESTERN LI SOUND 0349 41 290/ 8/ 12 N/A 1 CENTRAL LI SOUND 0430 42 290/ 14/ 17 N/A 2 ROBBINS REEF NOT AVBL $$ >>>>>>>>>>>>>>>>>>>>>>>>>>>> KEY <<<<<<<<<<<<<<<<<<<<<<<<<<< > < > SKY/WX - Sky Condition/Present Weather < > TMP - Temperature in Fahrenheit < > DP - Dew Point in Fahrenheit < > RH - Relative Humidity in Percent < > WIND - Direction (from) and Speed in MPH < > PRES - Mean Sea Level Pressure (inches of Hg) < > WCI - Wind Chill Index < > VSB - VISIBILITY IN MILES < > HX - HEAT INDEX < > TC - TEMPERATURE IN CELSIUS < > VRB - VARIABLE WIND DIRECTION < > < >>>>>>>>>>>>>>>>>>>>>>>>>>>> KEY <<<<<<<<<<<<<<<<<<<<<<<<<<<

USA.gov is the U.S. government's official web portal to all federal, state and local government web resources and services.